Weather History for KBIL - April, 2014

Change the Weather History Date:

Wednesday, April 2, 2014

  Actual Average Record
Temperature  
Mean Temperature 30 °F 42 °F  
Max Temperature 34 °F 53 °F 75 °F (1990)
Min Temperature 26 °F 31 °F -5 °F (1936)
Degree Days  
Heating Degree Days 35 23  
Month to date heating degree days 75 46  
Since 1 July heating degree days 6315 5856  
Cooling Degree Days 0 0  
Month to date cooling degree days 0 0  
Year to date cooling degree days 0 0  
Moisture  
Dew Point 27 °F    
Average Humidity 87    
Maximum Humidity 92    
Minimum Humidity 82    
Precipitation  
Precipitation 0.06 in 0.04 in 0.57 in (1964)
Month to date precipitation 0.06 0.09  
Year to date precipitation 4.46 2.11  
Snow  
Snow 0.50 in 0.30 in 4.60 in (1940)
Month to date snowfall 0.5 0.7  
Since 1 July snowfall 101.3 45.4  
Snow Depth T in    
Sea Level Pressure  
Sea Level Pressure 29.85 in    
Wind  
Wind Speed 9 mph (NE)    
Max Wind Speed 17 mph    
Max Gust Speed 20 mph    
Visibility 8 miles    
Events Fog , Snow    
T = Trace of Precipitation, MM = Missing Value Source: NWS Daily Summary

Daily Weather History Graph

Daily Weather History Graph

Search for Another Location

Airport or City:

Trip Planner

Search our weather history database for the weather conditions in past years. The results will help you decide how hot, cold, wet, or windy it might be!

Date:

Astronomy

Apr. 02, 2014 Rise Set
Actual Time 6:52 AM MDT 7:43 PM MDT
Civil Twilight 6:22 AM MDT 8:14 PM MDT
Nautical Twilight 5:46 AM MDT 8:50 PM MDT
Astronomical Twilight 5:08 AM MDT 9:28 PM MDT
Moon 8:30 AM MDT (4/2) 11:20 PM MDT (4/2)
Length of Visible Light 13h 52m
Length of Day
12h 51m
Waxing Crescent, 10% of the Moon is Illuminated
Apr 2
Waxing Crescent
Apr 7
First Quarter
Apr 15
Full
Apr 22
Last Quarter
Apr 29
New

Hourly Weather History & Observations

Time (MDT) Temp. Windchill Dew Point Humidity Pressure Visibility Wind Dir Wind Speed Gust Speed Precip Events Conditions
12:28 AM 28.9 °F 19.8 °F 26.1 °F 89% 29.82 in 9.0 mi NE 10.4 mph - N/A Fog Overcast
12:53 AM 28.9 °F 20.4 °F 26.1 °F 89% 29.91 in 9.0 mi NNE 9.2 mph - N/A Fog Overcast
1:53 AM 28.9 °F 20.4 °F 26.1 °F 89% 29.90 in 9.0 mi NNE 9.2 mph - N/A Fog Overcast
2:05 AM 28.9 °F 19.8 °F 26.1 °F 89% 29.79 in 10.0 mi NNE 10.4 mph - N/A Fog Overcast
2:36 AM 28.9 °F 18.6 °F 26.1 °F 89% 29.78 in 10.0 mi NNE 12.7 mph - N/A Fog Patches of Fog
2:53 AM 28.9 °F 19.8 °F 26.1 °F 89% 29.87 in 10.0 mi North 10.4 mph - N/A Fog Patches of Fog
3:33 AM 28.9 °F 19.2 °F 26.1 °F 89% 29.76 in 10.0 mi NE 11.5 mph - N/A Fog Patches of Fog
3:53 AM 28.9 °F 20.4 °F 26.1 °F 89% 29.86 in 10.0 mi NE 9.2 mph - N/A Fog Overcast
4:53 AM 28.0 °F 18.6 °F 26.1 °F 92% 29.85 in 9.0 mi NNE 10.4 mph - 0.00 in Fog Light Freezing Drizzle
5:20 AM 28.0 °F 20.0 °F 26.1 °F 92% 29.75 in 9.0 mi NNE 8.1 mph - 0.00 in Fog Light Freezing Drizzle
6:53 AM 26.1 °F 16.2 °F 24.1 °F 92% 29.87 in 10.0 mi NE 10.4 mph - N/A   Overcast
7:53 AM 26.1 °F 16.8 °F 24.1 °F 92% 29.85 in 10.0 mi NNE 9.2 mph - N/A   Overcast
8:53 AM 27.0 °F 17.3 °F 24.1 °F 89% 29.85 in 10.0 mi NNE 10.4 mph - N/A   Overcast
9:35 AM 27.0 °F 17.3 °F 25.0 °F 92% 29.76 in 10.0 mi NE 10.4 mph - N/A   Overcast
9:53 AM 27.0 °F 16.1 °F 24.1 °F 89% 29.86 in 10.0 mi NE 12.7 mph - N/A   Overcast
10:16 AM 27.0 °F 18.0 °F 24.1 °F 89% 29.76 in 10.0 mi NNE 9.2 mph - 0.00 in Snow Light Snow
10:53 AM 28.0 °F 20.0 °F 25.0 °F 88% 29.87 in 9.0 mi NE 8.1 mph - 0.00 in Snow Light Snow
11:41 AM 27.0 °F 21.6 °F 25.0 °F 92% 29.78 in 2.5 mi ENE 4.6 mph - 0.00 in Snow Light Snow
11:53 AM 27.0 °F 23.0 °F 25.0 °F 92% 29.88 in 2.5 mi NNE 3.5 mph - 0.01 in Snow Light Snow
12:23 PM 28.0 °F 22.8 °F 25.0 °F 88% 29.78 in 1.8 mi NE 4.6 mph - 0.00 in Snow Light Snow
12:26 PM 28.0 °F 22.8 °F 25.0 °F 88% 29.78 in 1.0 mi NE 4.6 mph - 0.00 in Snow Light Snow
12:53 PM 28.0 °F 22.8 °F 25.0 °F 88% 29.87 in 1.0 mi NNE 4.6 mph - 0.01 in Snow Light Snow
1:53 PM 30.0 °F - 27.0 °F 88% 29.87 in 1.0 mi Calm Calm - 0.03 in Snow Light Snow
2:30 PM 30.9 °F - 28.9 °F 92% 29.78 in 1.0 mi Calm Calm - 0.01 in Snow Light Snow
2:53 PM 30.0 °F 26.5 °F 28.9 °F 96% 29.87 in 1.0 mi SSW 3.5 mph - 0.01 in Snow Light Snow
3:00 PM 30.0 °F 25.2 °F 28.9 °F 96% 29.78 in 2.0 mi SSW 4.6 mph - 0.00 in Snow Light Snow
3:19 PM 30.9 °F 25.2 °F 28.9 °F 92% 29.79 in 3.0 mi SSW 5.8 mph - 0.00 in Snow Light Snow
3:53 PM 32.0 °F 25.6 °F 30.0 °F 92% 29.87 in 6.0 mi SSW 6.9 mph - 0.00 in   Overcast
4:40 PM 33.1 °F 27.7 °F 30.0 °F 89% 29.79 in 10.0 mi SSW 5.8 mph - N/A   Overcast
4:53 PM 33.1 °F 26.9 °F 30.0 °F 89% 29.88 in 10.0 mi South 6.9 mph - N/A   Overcast
5:53 PM 34.0 °F 28.0 °F 30.0 °F 85% 29.88 in 10.0 mi South 6.9 mph - N/A   Mostly Cloudy
6:53 PM 34.0 °F 28.0 °F 30.0 °F 85% 29.90 in 10.0 mi South 6.9 mph - N/A   Overcast
7:53 PM 34.0 °F 26.6 °F 30.0 °F 85% 29.91 in 10.0 mi SSW 9.2 mph - 0.00 in   Scattered Clouds
8:53 PM 33.1 °F 25.5 °F 30.0 °F 89% 29.94 in 10.0 mi SW 9.2 mph - N/A   Mostly Cloudy
9:53 PM 33.1 °F 23.4 °F 28.9 °F 85% 29.95 in 10.0 mi SW 13.8 mph - N/A   Overcast
10:53 PM 33.1 °F 24.4 °F 28.9 °F 85% 29.96 in 10.0 mi SW 11.5 mph - N/A   Mostly Cloudy
11:53 PM 34.0 °F 24.6 °F 28.9 °F 82% 29.98 in 10.0 mi WSW 13.8 mph - N/A   Overcast